Regional Weather Roundup
Issued by NWS

Home | Current Version | Previous Version | Graphics & Text | Print | Product List | Glossary On
Versions: 1 2 3 4 5 6 7 8 9 10 11 12 13 14 15 16 17 18 19 20 21 22 23 24 25 26 27 28 29 30 31 32 33 34 35 36 37 38 39 40 41 42 43 44 45 46 47 48 49 50
000
ASUS43 KLSX 201657
RWRMO

WEATHER SUMMARY FOR MISSOURI
NATIONAL WEATHER SERVICE SPRINGFIELD MO
1100 AM CST TUE FEB 20 2018

NOTE: "FAIR" INDICATES FEW OR NO CLOUDS BELOW 12,000 FEET WITH NO
       SIGNIFICANT WEATHER AND/OR OBSTRUCTIONS TO VISIBILITY.
       CURRENT SKY AND/OR WEATHER CONDITIONS ARE NOT AVAILABLE FOR
       CHILLICOTHE AND FARMINGTON.

MOZ001>031-035>038-043-044-053-054-201800-
...NORTHERN AND WESTERN MISSOURI...

CITY           SKY/WX    TMP DP  RH WIND       PRES   REMARKS
KANSAS CTY INT FRZ RAIN  27  24  89 N15       30.00R FOG     WCI  15
KANSAS C DTWN  MIX PCPN  30  27  86 NW12      30.03R WCI  21
LEE`S SUMMIT   FRZ RAIN  31  30  96 NW17      29.98R WCI  19
ST JOSEPH      CLOUDY    25  23  92 NW20      30.06R FOG     WCI  11
CHILLICOTHE      N/A     32  29  88 NW8       30.01R WCI  25
KIRKSVILLE     FRZ RAIN  34  34 100 NE8       29.89F FOG     WCI  27

$$
MOZ066>068-077>081-088>096-101>105-201800-
...SOUTHWEST MISSOURI...

CITY           SKY/WX    TMP DP  RH WIND       PRES   REMARKS
SPRINGFIELD    HVY RAIN  53  51  93 NW10G22   29.91R FOG
JOPLIN         LGT RAIN  38  38 100 NW14G23   29.99R WCI  30
BRANSON        CLOUDY    66  64  94 S14       29.93S

$$
MOZ032>034-039>042-045>050-055>058-069>072-201800-
...CENTRAL MISSOURI...

CITY           SKY/WX    TMP DP  RH WIND       PRES   REMARKS
COLUMBIA       NOT AVBL
JEFFERSON CITY RAIN      38  36  92 N17G32    29.95R WCI  28
ROLLA          LGT RAIN  65  62  90 S22G35    29.91R
SEDALIA        LGT RAIN  35  35 100 N9        29.96R FOG     WCI  28
WARRENSBURG    MIX PCPN  32  32 100 NW6       29.98R WCI  26

$$
MOZ051-052-059>065-201800-
...EAST CENTRAL MISSOURI...

CITY           SKY/WX    TMP DP  RH WIND       PRES   REMARKS
ST LOUIS INTL  LGT RAIN  66  63  90 S21G29    29.92S

$$
MOZ072>076-082>087-097>100-106>115-201800-
...SOUTH CENTRAL AND SOUTHEAST MISSOURI...

CITY           SKY/WX    TMP DP  RH WIND       PRES   REMARKS
CAPE GIRARDEAU NOT AVBL
POPLAR BLUFF   CLOUDY    71  64  78 S21G36    30.05S
WEST PLAINS    CLOUDY    65  61  87 S8G23     29.99F

$$


USA.gov is the U.S. government's official web portal to all federal, state and local government web resources and services.